FW1587 Weather Reports


time (UTC)temp
C
wind
direction
speed
KPH
gust
KPH
rain 1hr
cm
rain 24hr
cm
rain mn
cm
humidity
%
barometer
mb
20260506181522 7 61 0.0 8.0 0.00 0.64 0.64 1 1007.7
20260506180014 8 251 6.4 16.1 0.00 0.64 0.64 1 1007.6
20260506174510 8 240 8.0 16.1 0.00 0.64 0.64 3 1007.4
20260506173005 8 294 3.2 16.1 0.00 0.64 0.64 1 1007.0
20260506171503 8 253 3.2 12.9 0.00 0.64 0.64 1 1006.9
20260506170059 8 356 4.8 22.5 0.00 0.64 0.64 1 1006.9
20260506164557 8 300 6.4 24.1 0.00 0.71 0.64 1 1006.9
20260506163103 8 281 3.2 14.5 0.00 0.71 0.64 1 1007.0
20260506161558 8 235 3.2 16.1 0.00 0.71 0.64 1 1006.8
20260506160056 8 218 6.4 16.1 0.00 0.71 0.64 1 1006.7
20260506154556 8 243 0.0 12.9 0.00 0.79 0.64 1 1006.8
20260506153051 8 293 8.0 19.3 0.00 0.79 0.64 1 1006.8
20260506151548 8 223 8.0 20.9 0.00 0.79 0.64 1 1006.8
20260506150045 8 231 8.0 17.7 0.00 0.79 0.64 1 1006.8
20260506144559 8 285 8.0 16.1 0.00 0.79 0.64 1 1006.6
20260506143141 8 245 3.2 16.1 0.00 0.79 0.64 1 1006.6
20260506141542 8 225 12.9 24.1 0.03 0.79 0.64 1 1006.5
20260506140039 8 241 1.6 16.1 0.03 0.79 0.64 1 1006.4
20260506134534 8 198 1.6 11.3 0.05 0.79 0.64 1 1006.5
20260506133033 8 219 1.6 12.9 0.08 0.79 0.64 1 1006.5
20260506131530 8 292 1.6 20.9 0.15 0.79 0.61 1 1006.4
20260506130026 8 227 3.2 17.7 0.30 0.79 0.61 1 1006.2
20260506124522 8 257 3.2 22.5 0.46 0.76 0.61 1 1005.9
20260506123019 8 310 6.4 20.9 0.48 0.71 0.56 1 1005.5
20260506121509 8 236 9.7 30.6 0.43 0.64 0.48 1 1005.4
20260506120018 8 274 12.9 29.0 0.33 0.51 0.36 1 1005.3
20260506114504 10 141 3.2 12.9 0.15 0.33 0.18 1 1005.1
20260506113100 10 240 4.8 17.7 0.08 0.25 0.10 1 1004.7
20260506111558 10 287 3.2 11.3 0.05 0.23 0.05 1 1004.6
20260506110049 11 314 0.0 4.8 0.05 0.20 0.05 1 1004.6
20260506103042 11 13 3.2 8.0 0.03 0.18 0.03 1 1004.5
20260506101537 11 27 4.8 9.7 0.03 0.18 0.03 1 1004.4
20260506100032 11 35 6.4 9.7 0.00 0.15 0.00 1 1004.3
20260506093034 11 24 0.0 6.4 0.00 0.15 0.00 1 1004.5
20260506091526 11 40 1.6 4.8 0.00 0.15 0.00 1 1004.4
20260506090023 11 22 4.8 8.0 0.00 0.15 0.00 1 1004.2
20260506083009 11 57 1.6 6.4 0.00 0.15 0.00 1 1004.2
20260506081505 11 50 1.6 6.4 0.00 0.15 0.00 2 1004.3
20260506073105 11 93 0.0 4.8 0.00 0.15 0.00 1 1004.3
20260506071550 11 159 1.6 9.7 0.00 0.15 0.00 1 1004.4
20260506061533 10 325 0.0 1.6 0.00 0.15 0.00 1 1004.3
20260506043006 8 302 1.6 6.4 0.00 0.15 0.00 1 1004.4
20260506041502 8 268 1.6 9.7 0.00 0.15 0.00 1 1004.3
20260506040057 8 274 0.0 1.6 0.00 0.15 0.00 1 1004.5
20260506033108 8 283 3.2 8.0 0.00 0.15 0.00 1 1004.8
20260506031552 8 261 0.0 6.4 0.00 0.15 0.00 1 1005.1
20260506030056 8 249 0.0 4.8 0.00 0.15 0.00 1 1005.2
20260506023033 8 251 0.0 4.8 0.00 0.15 0.00 1 1005.6
20260506021529 9 251 1.6 3.2 0.00 0.15 0.00 1 1005.6
20260506020025 9 284 0.0 3.2 0.00 0.15 0.00 1 1005.8
20260506013017 10 106 0.0 4.8 0.00 0.15 0.00 1 1006.1
20260506011532 10 285 1.6 11.3 0.00 0.15 0.00 1 1006.1
20260506010009 10 254 3.2 9.7 0.00 0.15 0.00 1 1006.4
20260506003002 10 263 0.0 6.4 0.00 0.15 0.00 1 1006.5
20260506001601 9 218 1.6 4.8 0.00 0.15 0.00 1 1006.9
20260506000057 9 232 3.2 8.0 0.00 0.15 0.00 1 1007.3
20260505234648 9 219 1.6 4.8 0.00 0.15 0.00 1 1007.1
20260505233047 9 240 1.6 4.8 0.00 0.15 0.00 1 1007.1
20260505231544 10 267 1.6 6.4 0.00 0.15 0.00 1 1007.2
20260505230037 10 218 0.0 6.4 0.00 0.15 0.00 1 1007.4
20260505224636 10 243 4.8 14.5 0.00 0.15 0.00 1 1007.4
20260505223032 10 239 1.6 6.4 0.00 0.15 0.00 1 1007.4
20260505221524 10 217 0.0 9.7 0.00 0.15 0.00 1 1007.3
20260505220042 10 250 0.0 11.3 0.00 0.15 0.00 1 1007.4
20260505214621 10 243 3.2 9.7 0.00 0.15 0.15 1 1007.8
20260505213022 10 241 3.2 8.0 0.00 0.15 0.15 1 1007.8
20260505211618 10 223 4.8 11.3 0.00 0.15 0.15 1 1008.0
20260505210018 10 229 6.4 11.3 0.00 0.15 0.15 1 1007.9
20260505204618 10 231 3.2 6.4 0.00 0.15 0.15 1 1007.8
20260505203021 10 231 1.6 11.3 0.00 0.15 0.15 1 1007.9
20260505201519 9 241 1.6 8.0 0.00 0.15 0.15 1 1007.7
20260505200019 9 250 3.2 11.3 0.00 0.15 0.15 1 1007.7
20260505194618 9 241 3.2 12.9 0.00 0.15 0.15 1 1007.5
20260505193025 10 248 6.4 12.9 0.00 0.15 0.15 1 1007.3
20260505191519 10 236 4.8 12.9 0.00 0.15 0.15 1 1007.2
20260505190011 10 235 6.4 14.5 0.00 0.15 0.15 1 1007.1
20260505184607 10 245 4.8 11.3 0.00 0.15 0.15 1 1007.0
20260505183005 10 205 4.8 8.0 0.00 0.15 0.15 1 1007.0